TimeMST,TemperatureF,Dew PointF,Humidity,Sea Level PressureIn,VisibilityMPH,Wind Direction,Wind SpeedMPH,Gust SpeedMPH,PrecipitationIn,Events,Conditions,WindDirDegrees,DateUTC
12:53 AM,36.0,23.0,59,29.59,10.0,South,6.9,-,N/A,,Overcast,190,2013-11-16 07:53:00
1:53 AM,34.0,27.0,75,29.57,10.0,WNW,9.2,-,N/A,,Overcast,300,2013-11-16 08:53:00
2:42 AM,32.0,30.9,96,29.57,4.0,West,11.5,-,0.00,Snow,Light Snow,270,2013-11-16 09:42:00
2:53 AM,32.0,30.9,96,29.59,3.0,WSW,8.1,-,0.00,Snow,Light Snow,250,2013-11-16 09:53:00
3:00 AM,32.0,30.9,96,29.56,2.5,WSW,9.2,-,0.00,Snow,Light Snow,240,2013-11-16 10:00:00
3:05 AM,32.0,30.9,96,29.56,3.0,SW,9.2,-,0.00,Snow,Light Snow,230,2013-11-16 10:05:00
3:21 AM,32.0,32.0,100,29.55,2.0,SW,8.1,-,0.01,Snow,Light Snow,220,2013-11-16 10:21:00
3:35 AM,32.0,32.0,100,29.55,1.5,SW,8.1,-,0.01,Snow,Light Snow,220,2013-11-16 10:35:00
3:53 AM,32.0,32.0,100,29.57,1.5,SW,9.2,-,0.02,Snow,Light Snow,220,2013-11-16 10:53:00
4:13 AM,32.0,32.0,100,29.54,0.8,SSW,9.2,-,0.02,Snow,Light Snow,200,2013-11-16 11:13:00
4:26 AM,32.0,32.0,100,29.54,1.0,SSW,10.4,-,0.04,Snow,Light Snow,200,2013-11-16 11:26:00
4:48 AM,30.2,30.2,100,29.53,0.8,South,11.5,-,0.04,Snow,Light Snow,190,2013-11-16 11:48:00
4:53 AM,32.0,32.0,100,29.56,0.5,South,10.4,-,0.04,Fog-Snow,Light Snow,190,2013-11-16 11:53:00
5:22 AM,32.0,32.0,100,29.53,1.2,SSW,11.5,-,0.01,Snow,Light Snow,200,2013-11-16 12:22:00
5:29 AM,32.0,32.0,100,29.53,3.0,SSW,12.7,-,0.01,Snow,Light Snow,200,2013-11-16 12:29:00
5:39 AM,32.0,32.0,100,29.53,1.8,SSW,9.2,-,0.01,,Overcast,200,2013-11-16 12:39:00
5:53 AM,32.0,32.0,100,29.57,1.2,SSW,9.2,-,0.01,,Overcast,210,2013-11-16 12:53:00
5:58 AM,32.0,32.0,100,29.53,3.0,SSW,10.4,-,N/A,,Overcast,210,2013-11-16 12:58:00
6:53 AM,32.0,32.0,100,29.56,6.0,SW,5.8,-,N/A,,Overcast,220,2013-11-16 13:53:00
7:36 AM,32.0,32.0,100,29.54,8.0,SW,6.9,-,0.00,Snow,Light Snow,230,2013-11-16 14:36:00
7:53 AM,32.0,32.0,100,29.57,5.0,SW,5.8,-,0.00,Snow,Light Snow,220,2013-11-16 14:53:00
8:04 AM,32.0,32.0,100,29.53,7.0,SW,5.8,-,0.00,Snow,Light Snow,220,2013-11-16 15:04:00
8:53 AM,34.0,32.0,92,29.57,10.0,SSW,6.9,-,0.00,,Mostly Cloudy,210,2013-11-16 15:53:00
9:53 AM,36.0,33.1,89,29.57,10.0,SW,16.1,23.0,N/A,,Overcast,230,2013-11-16 16:53:00
10:53 AM,37.9,33.1,83,29.57,10.0,SW,11.5,-,N/A,,Overcast,230,2013-11-16 17:53:00
11:53 AM,39.0,33.1,79,29.55,10.0,SW,15.0,-,0.00,,Overcast,230,2013-11-16 18:53:00
12:53 PM,42.1,28.0,58,29.51,10.0,WSW,26.5,47.2,N/A,,Overcast,240,2013-11-16 19:53:00
1:53 PM,43.0,28.9,58,29.51,10.0,WSW,18.4,28.8,0.00,,Overcast,240,2013-11-16 20:53:00
2:53 PM,39.0,32.0,76,29.54,10.0,West,24.2,33.4,N/A,,Mostly Cloudy,270,2013-11-16 21:53:00
3:53 PM,37.9,30.0,73,29.58,10.0,West,25.3,32.2,N/A,,Clear,270,2013-11-16 22:53:00
4:53 PM,37.0,28.0,70,29.62,10.0,West,17.3,-,N/A,,Mostly Cloudy,260,2013-11-16 23:53:00
5:53 PM,35.1,27.0,72,29.66,10.0,West,11.5,-,N/A,,Mostly Cloudy,260,2013-11-17 00:53:00
6:53 PM,34.0,27.0,75,29.69,10.0,WSW,9.2,-,N/A,,Scattered Clouds,250,2013-11-17 01:53:00
7:53 PM,33.1,28.0,82,29.73,10.0,SSW,8.1,-,N/A,,Clear,210,2013-11-17 02:53:00
8:53 PM,32.0,27.0,82,29.76,10.0,SSW,8.1,-,N/A,,Clear,210,2013-11-17 03:53:00
9:53 PM,33.1,27.0,78,29.78,10.0,WSW,11.5,-,N/A,,Clear,240,2013-11-17 04:53:00
10:53 PM,32.0,27.0,82,29.81,10.0,WSW,9.2,-,N/A,,Mostly Cloudy,240,2013-11-17 05:53:00
11:53 PM,30.9,26.1,82,29.84,10.0,SSW,8.1,-,N/A,,Overcast,210,2013-11-17 06:53:00